Flag for Czech Republic Weather past 2 weeks in Ostrava, Czech Republic

Now
67 °F

Overcast.


Feels Like: 67 °F
Forecast: 50 / 61 °F
Wind: 5 mph from West

Location: Ostrava / Mosnov

Current Time: Sep 5, 2015 at 7:10:10 PM

Latest Report: Sep 5, 2015 at 6:00 PM


Visibility: 25 mi

Pressure: 29.84 "Hg

Humidity: 48%

Dew point: 47 °F

Location of OstravaLocation

Historic Weather in Ostrava — Graph

°F

Ostrava temperature yesterday

Maximum temperature yesterday: 72 °F (at 5:00 PM)
Minimum temperature yesterday: 57 °F (at 5:00 AM)
Average temperature yesterday: 63 °F

Past Weeks' High & Low Weather Summary

 TemperatureHumidityPressure
High93 °F (Aug 31, 2:00 PM)99% (Aug 30, 6:00 AM)30.27 "Hg (Aug 30, 6:00 AM)
Low50 °F (Aug 27, 6:00 AM)25% (Aug 31, 2:00 PM)29.72 "Hg (Sep 1, 6:00 PM)
Average69 °F65%30.02 "Hg
* Reported Aug 21 5:00 PM — Sep 5 5:00 PM, Ostrava, Weather by CustomWeather, © 2015

Note: Actual official high and low records may vary slightly from our data, if they occured in-between our weather recording intervals... More about our weather records

Advertising

Ostrava weather history for previous 24 hours

 ConditionsComfort  
Time TempWeatherWind HumidityBarometerVisibility
5:00 PM
Sat, Sep 5
69 °FOvercast.6 mph56%29.84 "Hg25 mi
4:00 PM70 °FPartly sunny.7 mph41%29.85 "Hg25 mi
3:00 PM71 °FPartly sunny.7 mph46%29.85 "Hg25 mi
2:00 PM69 °FOvercast.7 mph54%29.86 "Hg25 mi
1:00 PM67 °FOvercast.7 mph57%29.88 "Hg19 mi
12:00 PM66 °FOvercast.7 mph63%29.90 "Hg19 mi
11:00 AM64 °FOvercast.7 mph67%29.91 "Hg16 mi
10:00 AM61 °FPartly sunny.3 mph78%29.91 "Hg16 mi
8:00 AM56 °FOvercast.2 mph91%29.93 "Hg16 mi
7:00 AM55 °FOvercast.3 mph88%29.93 "Hg12 mi
6:00 AM54 °FOvercast.N/A90%29.93 "Hg11 mi
5:00 AM55 °FOvercast.N/A86%29.93 "Hg12 mi
4:00 AM54 °FOvercast.N/A87%29.95 "Hg12 mi
3:00 AM53 °FOvercast.2 mph90%29.96 "Hg12 mi
2:00 AM55 °FPassing clouds.2 mph85%29.96 "Hg12 mi
1:00 AM57 °FPassing clouds.N/A80%29.97 "Hg12 mi
12:00 AM58 °FOvercast.1 mph79%29.96 "Hg12 mi
10:00 PM
Fri, Sep 4
59 °FPassing clouds.2 mph70%29.97 "Hg12 mi
9:00 PM61 °FPassing clouds.N/A67%29.96 "Hg12 mi
8:00 PM64 °FPassing clouds.3 mph60%29.95 "Hg16 mi
7:00 PM65 °FScattered clouds.3 mph52%29.94 "Hg19 mi
Weather by CustomWeather, © 2015

See weather overviewHow to use our weather pages